User: anonymous
Location: Radomski Observatory
(40.2854°N, 79.5145°W)
Time: 07:59:59
(UTC-04:00)
Language:

Uosat F - Orbit

View from above orbital plane
View from above orbital plane
View from above satellite
View from above satellite

Ground track
Ground track

The orbit data is extracted from the following two-line orbital elements,

1 21575U 91050B   14237.12524755  .00000096  00000-0  44634-4 0   938
2 21575 098.7063 214.4918 0008509 115.6537 023.8637 14.40410801213406
Epoch (UTC): 25 August 2014 03:00:21
Eccentricity: 0.0008509
inclination: 98.7063°
perigee height: 751 km
apogee height: 763 km
right ascension of ascending node: 214.4918°
argument of perigee: 115.6537°
revolutions per day: 14.40410801
mean anomaly at epoch: 23.8637°
orbit number at epoch: 21340

The dashed part of the orbit path shows where the satellite is in the earth's shadow,  

DLR